Weather in Chibilya

Russia / Altai Republic     50°37′17″N   87°55′05″E
temp.,
°C
wind,
m/s
gust,
m/s
humid.,
%
clouds,
%
prec.,
mm/h
press.,
hPa
HPBL,
m
20 april, tue
tue2001:00−5nw2295100 1.0 1011171
04:00−8nnw2394100 3.7 1015237
07:00−10nnw2292100 4.3 1017257
10:00−6nnw337996 0.1 1015566
13:00−3nnw3570100 0.2 1011736
16:00−4nnw3487100 0.3 1012573
19:00−7nnw3386100 0.9 1016484
22:00−10nnw3387100 0.3 1020392
21 april, wed
wed2101:00−12nnw2291100 0.6 1022347
04:00−13nnw1189100 0.1 1022229
07:00−13sse019034 0.1 102391
10:00−8nne116466 0.0 1018596
13:00−3n225560 0.0 10141146
16:00−1n224770 0.1 10111440
19:00−2nw345394 0.1 1012486
22:00−7nw2391100 0.1 1019144
22 april, thu
thu2201:00−9nnw2293100 0.6 1021233
04:00−10nnw2293100 0.8 1023262
07:00−10nnw2292100 1.6 1025316
10:00−8nnw3280100 0.6 1026755
13:00−5n3263100 0.9 10241372
16:00−4nnw3362100 0.4 10241214
19:00−7nw3492100 2.3 1028464
22:00−9nw2394100 2.0 1034298
23 april, fri
fri2301:00−10nnw2296100 2.6 1034210
04:00−11nnw1296100 0.6 1034187
07:00−11nnw1193100 1.0 1035227
10:00−8nne1175100 0.4 1033810
13:00−5nnw2270100 0.9 1030961
16:00−4nw2279100 1.2 1029637
19:00−5n2393100 2.1 1030335
22:00−7nnw2396100 1.9 1033289
24 april, sat
sat2401:00−8nnw1296100 3.1 1033215
04:00−9nnw1296100 0.8 1033146
07:00−9nw0194100 1.6 1033210
10:00−7w1176100 1.1 1032682
13:00−5sw125299 1.9 10301341
16:00−4wsw224097 0.3 10282008
19:00−5wnw226028 0.5 1029173
22:00−11ssw2277100 0.0 103416